TimeEST,TemperatureF,Dew PointF,Humidity,Sea Level PressureIn,VisibilityMPH,Wind Direction,Wind SpeedMPH,Gust SpeedMPH,PrecipitationIn,Events,Conditions,WindDirDegrees,DateUTC
12:53 AM,75.9,71.1,85,29.85,10.0,South,8.1,-,N/A,,Mostly Cloudy,170,2013-02-26 05:53:00
1:53 AM,77.0,69.1,76,29.83,10.0,South,8.1,18.4,N/A,,Mostly Cloudy,170,2013-02-26 06:53:00
2:53 AM,77.0,70.0,79,29.81,10.0,South,18.4,25.3,N/A,,Partly Cloudy,180,2013-02-26 07:53:00
3:53 AM,75.9,70.0,82,29.81,10.0,South,12.7,18.4,N/A,,Mostly Cloudy,180,2013-02-26 08:53:00
4:49 AM,75.2,71.6,89,29.82,10.0,South,9.2,-,N/A,,Scattered Clouds,180,2013-02-26 09:49:00
4:53 AM,75.9,71.1,85,29.82,10.0,South,9.2,-,N/A,,Scattered Clouds,180,2013-02-26 09:53:00
5:53 AM,75.9,70.0,82,29.82,10.0,South,9.2,-,N/A,,Partly Cloudy,180,2013-02-26 10:53:00
6:17 AM,75.2,69.8,83,29.83,10.0,South,9.2,-,N/A,,Mostly Cloudy,180,2013-02-26 11:17:00
6:31 AM,75.2,69.8,83,29.83,10.0,South,9.2,-,N/A,,Mostly Cloudy,180,2013-02-26 11:31:00
6:53 AM,75.9,70.0,82,29.83,10.0,South,12.7,17.3,N/A,,Mostly Cloudy,180,2013-02-26 11:53:00
7:06 AM,77.0,71.6,83,29.84,10.0,South,10.4,19.6,N/A,,Mostly Cloudy,180,2013-02-26 12:06:00
7:53 AM,78.1,72.0,81,29.86,10.0,South,11.5,18.4,N/A,,Mostly Cloudy,180,2013-02-26 12:53:00
8:53 AM,81.0,69.1,67,29.88,10.0,SSW,16.1,21.9,N/A,,Scattered Clouds,200,2013-02-26 13:53:00
9:53 AM,82.0,70.0,67,29.88,10.0,South,12.7,-,N/A,,Scattered Clouds,180,2013-02-26 14:53:00
10:53 AM,82.9,69.1,63,29.88,10.0,South,16.1,23.0,N/A,,Mostly Cloudy,170,2013-02-26 15:53:00
11:53 AM,80.1,70.0,71,29.89,10.0,South,15.0,25.3,0.00,Rain,Light Rain,180,2013-02-26 16:53:00
12:53 PM,82.9,71.1,67,29.88,10.0,South,15.0,21.9,0.00,,Mostly Cloudy,180,2013-02-26 17:53:00
1:53 PM,84.0,71.1,65,29.85,10.0,South,18.4,24.2,0.00,,Mostly Cloudy,190,2013-02-26 18:53:00
2:53 PM,82.9,70.0,65,29.83,10.0,South,18.4,25.3,N/A,,Mostly Cloudy,180,2013-02-26 19:53:00
3:53 PM,81.0,71.1,72,29.83,10.0,South,15.0,24.2,N/A,,Mostly Cloudy,180,2013-02-26 20:53:00
4:53 PM,81.0,71.1,72,29.83,10.0,SSW,10.4,-,N/A,,Mostly Cloudy,200,2013-02-26 21:53:00
5:53 PM,81.0,71.1,72,29.85,10.0,SSW,8.1,-,N/A,,Mostly Cloudy,200,2013-02-26 22:53:00
6:53 PM,81.0,69.1,67,29.86,10.0,WSW,10.4,-,N/A,,Scattered Clouds,240,2013-02-26 23:53:00
7:53 PM,79.0,70.0,74,29.88,10.0,SW,6.9,-,N/A,,Partly Cloudy,220,2013-02-27 00:53:00
8:53 PM,78.1,71.1,79,29.90,10.0,South,6.9,-,N/A,,Scattered Clouds,190,2013-02-27 01:53:00
9:53 PM,77.0,73.0,88,29.90,10.0,SSW,6.9,-,N/A,,Partly Cloudy,200,2013-02-27 02:53:00
10:53 PM,77.0,73.0,88,29.90,9.0,South,5.8,-,N/A,,Scattered Clouds,190,2013-02-27 03:53:00
11:53 PM,77.0,73.0,88,29.90,10.0,SSW,5.8,-,N/A,,Partly Cloudy,210,2013-02-27 04:53:00